W5URF-13 Weather Reports


Display with metric or nautical units.
time (UTC)temp
F
wind
direction
speed
MPH
gust
MPH
rain 1hr
in
rain 24hr
in
rain mn
in
humidity
%
barometer
mb
20260506004548 51 68 3.0 7.0 0.00 0.00 0.00 75 1011.6
20260506003047 51 68 2.0 7.0 0.00 0.00 0.00 75 1011.5
20260506001544 51 160 4.0 12.0 0.00 0.00 0.00 73 1011.3
20260506000043 51 67 2.0 9.0 0.00 0.00 0.00 73 1011.1
20260505234604 51 78 1.0 9.0 0.00 0.00 0.00 72 1011.3
20260505233040 52 105 0.0 9.0 0.00 0.00 0.00 73 1011.1
20260505231537 52 108 1.0 12.0 0.00 0.00 0.00 72 1010.9
20260505230037 52 38 2.0 14.0 0.00 0.00 0.00 72 1010.5
20260505224533 53 22 4.0 12.0 0.00 0.00 0.00 72 1010.2
20260505223030 53 77 0.0 9.0 0.00 0.00 0.00 71 1010.1
20260505221527 53 70 0.0 9.0 0.00 0.00 0.00 71 1009.6
20260505220026 53 347 4.0 11.0 0.00 0.00 0.00 72 1009.4
20260505214524 53 69 0.0 12.0 0.00 0.00 0.00 73 1009.8
20260505213022 53 50 1.0 10.0 0.00 0.00 0.00 74 1009.8
20260505211534 54 14 2.0 12.0 0.00 0.00 0.00 74 1009.6
20260505210018 53 4 5.0 18.0 0.00 0.00 0.00 75 1009.0
20260505204516 53 46 5.0 14.0 0.00 0.00 0.00 76 1009.2
20260505203014 53 22 5.0 17.0 0.00 0.00 0.00 76 1009.5
20260505201510 54 29 3.0 12.0 0.00 0.00 0.00 77 1009.0
20260505200008 54 95 3.0 9.0 0.00 0.00 0.00 78 1008.9
20260505194508 54 17 4.0 18.0 0.00 0.00 0.00 77 1009.0
20260505193003 55 360 3.0 12.0 0.00 0.00 0.00 78 1008.9
20260505191602 55 82 3.0 11.0 0.00 0.00 0.00 78 1008.5
20260505190058 55 22 3.0 12.0 0.00 0.00 0.00 80 1008.4
20260505184558 55 39 3.0 11.0 0.00 0.00 0.00 81 1008.0
20260505183055 55 12 0.0 15.0 0.00 0.00 0.00 81 1008.1
20260505181552 55 30 3.0 14.0 0.00 0.00 0.00 82 1008.2
20260505180056 55 48 3.0 16.0 0.00 0.00 0.00 82 1008.1
20260505174547 55 63 4.0 15.0 0.00 0.00 0.00 83 1007.2
20260505173044 56 58 4.0 15.0 0.00 0.00 0.00 83 1007.1
20260505171543 56 56 2.0 9.0 0.00 0.00 0.00 83 1007.2
20260505170041 56 22 3.0 13.0 0.00 0.00 0.00 83 1006.9
20260505164539 56 66 5.0 15.0 0.00 0.00 0.00 83 1006.6
20260505163035 57 30 3.0 16.0 0.00 0.00 0.00 83 1006.4
20260505161532 58 1 6.0 19.0 0.00 0.00 0.00 82 1006.3
20260505153019 62 46 3.0 16.0 0.00 0.00 0.00 81 1005.5
20260505151519 66 44 4.0 8.0 0.00 0.00 0.00 80 1005.2
20260505124603 66 83 2.0 6.0 0.00 0.00 0.00 80 1004.6
20260505123100 66 167 1.0 5.0 0.00 0.00 0.00 80 1004.4
20260505121601 66 126 1.0 5.0 0.00 0.00 0.00 80 1004.1
20260505120112 66 111 1.0 5.0 0.00 0.00 0.00 80 1004.2
20260505114559 66 114 1.0 4.0 0.00 0.00 0.00 80 1004.1
20260505113104 66 84 1.0 3.0 0.00 0.00 0.00 80 1004.0
20260505111556 66 244 0.0 4.0 0.00 0.00 0.00 80 1003.8
20260505101557 66 82 2.0 4.0 0.00 0.00 0.00 80 1003.0
20260505100055 66 96 1.0 4.0 0.00 0.00 0.00 79 1002.8
20260505094559 66 117 1.0 4.0 0.00 0.00 0.00 79 1002.7
20260505093054 67 130 1.0 4.0 0.00 0.00 0.00 78 1002.8
20260505091547 67 164 1.0 4.0 0.00 0.00 0.00 76 1002.8
20260505090044 68 151 1.0 4.0 0.00 0.00 0.00 75 1002.9
20260505084543 68 155 1.0 4.0 0.00 0.00 0.00 75 1003.1
20260505083057 68 140 1.0 3.0 0.00 0.00 0.00 74 1003.1
20260505081540 68 165 1.0 3.0 0.00 0.00 0.00 74 1003.3
20260505080042 68 130 0.0 3.0 0.00 0.00 0.00 74 1003.3
20260505074537 68 117 0.0 0.0 0.00 0.00 0.00 73 1003.6
20260505073039 68 131 0.0 0.0 0.00 0.00 0.00 73 1003.8
20260505071535 69 64 0.0 0.0 0.00 0.00 0.00 73 1003.9
20260505070043 69 39 0.0 3.0 0.00 0.00 0.00 73 1004.2
20260505064533 69 31 0.0 0.0 0.00 0.00 0.00 73 1004.2
20260505063032 69 29 0.0 0.0 0.00 0.00 0.00 73 1004.4
20260505061542 69 359 0.0 0.0 0.00 0.00 0.00 71 1004.2
20260505060027 70 211 2.0 7.0 0.00 0.00 0.00 71 1003.5
20260505054540 70 179 1.0 10.0 0.00 0.00 0.00 70 1003.5
20260505053026 70 233 2.0 8.0 0.00 0.00 0.00 70 1003.6
20260505051523 70 218 2.0 7.0 0.00 0.00 0.00 69 1003.6
20260505041510 70 252 2.0 6.0 0.00 0.00 0.00 67 1003.5
20260505040018 70 146 2.0 6.0 0.00 0.00 0.00 66 1003.9
20260505034504 70 165 3.0 10.0 0.00 0.00 0.00 64 1003.9
20260505033003 70 226 4.0 11.0 0.00 0.00 0.00 63 1004.2
20260505031600 71 151 2.0 8.0 0.00 0.00 0.00 63 1004.4
20260505030059 71 162 3.0 8.0 0.00 0.00 0.00 62 1004.5
20260505024557 71 120 4.0 10.0 0.00 0.00 0.00 61 1004.7
20260505023057 72 151 3.0 7.0 0.00 0.00 0.00 60 1004.8
20260505021558 72 147 3.0 10.0 0.00 0.00 0.00 60 1004.6
20260505020055 73 146 3.0 7.0 0.00 0.00 0.00 60 1004.7
20260505014554 73 152 2.0 6.0 0.00 0.00 0.00 59 1004.6
20260505013053 73 136 3.0 8.0 0.00 0.00 0.00 59 1004.6
20260505011554 74 129 2.0 8.0 0.00 0.00 0.00 59 1004.5
20260505010059 74 221 2.0 7.0 0.00 0.00 0.00 59 1004.4